Temp
11 10 10 11 11 11 10 10 10 10 9 9 9 8 8 8 8 8 8 8 8 8 8 7 7 7 7 7 7 6 6 6 6 5 5 5 5 5 5 5 5 5
11 10 10 11 11 11 11 10 10 10 9 9 9 8 8 8 8 7 7 7 7 7 7 7 7 7 7 6 6 6 6 6 5 5 5 5 5 5 4 4 4 5
11 10 10 10 10 10 10 10 10 10 9 9 9 8 8 8 7 7 7 7 7 7 6 6 6 6 6 6 6 6 5 5 5 5 5 5 5 5 4 4 4 4
11 10 10 10 10 10 10 10 10 9 9 9 9 8 8 8 7 7 7 7 7 6 6 6 5 5 5 5 5 5 5 5 5 5 5 5 5 4 4 4 4 4
10 10 10 10 10 10 10 10 9 9 9 8 8 8 8 7 7 7 7 7 6 6 6 5 5 5 5 5 5 5 5 5 5 5 4 4 4 4 4 4 4 4
10 10 10 10 9 9 9 9 9 9 8 8 8 7 7 7 7 7 7 7 6 6 6 6 5 5 5 5 5 5 5 5 5 4 4 4 4 4 4 4 4 4
10 10 10 10 9 9 9 9 9 8 8 8 7 7 7 6 6 6 6 6 6 6 6 6 5 5 5 5 5 4 4 4 4 4 4 4 4 4 4 4 4 4
10 10 10 10 9 9 9 9 9 8 8 7 7 7 6 6 6 6 6 6 6 6 6 6 5 5 5 4 4 4 4 4 4 4 4 4 4 4 4 4 4 4
10 10 10 9 9 9 9 9 8 8 7 7 7 7 7 6 6 6 6 6 5 6 6 5 5 5 5 4 4 4 4 4 4 4 4 4 4 4 4 4 4 4
10 10 10 9 9 9 9 8 8 7 7 7 6 6 6 6 6 6 6 6 6 6 6 5 5 5 5 4 4 4 4 4 4 4 4 4 4 4 4 4 4 4
9 9 9 9 9 9 8 8 7 7 6 6 6 6 6 6 6 6 6 6 6 6 5 5 5 5 4 4 4 4 4 4 4 4 4 3 3 3 4 4 4 4
9 9 9 9 9 9 8 8 7 7 6 6 6 6 6 6 5 6 6 6 6 6 5 5 5 4 4 4 4 4 3 3 3 3 3 3 3 3 3 4 4 3
9 9 9 9 9 8 8 7 7 6 6 6 6 6 6 6 6 6 6 5 5 5 5 4 4 4 4 4 4 4 3 3 3 3 3 3 3 3 3 3 3 3
9 9 9 9 8 8 7 7 6 6 6 6 6 6 6 6 5 5 5 5 5 5 4 4 4 4 4 3 3 3 3 3 3 3 2 3 3 3 3 3 2 2
9 9 8 8 8 8 7 6 6 6 6 6 6 6 6 5 5 5 5 5 4 4 4 4 3 3 3 3 3 3 3 3 3 3 2 2 2 3 3 2 2 2
9 8 8 7 7 7 7 6 6 6 6 6 6 6 5 5 5 5 5 5 4 4 4 4 3 3 3 3 2 2 2 2 2 2 2 2 3 3 3 3 3 3
8 8 7 7 7 7 6 6 6 6 6 6 6 5 5 5 5 5 5 5 4 4 4 3 3 3 3 2 2 2 2 2 2 2 2 2 3 3 3 3 3 2
8 7 7 7 7 7 6 6 6 6 6 6 5 5 5 5 5 5 5 5 5 4 4 3 3 3 3 2 2 2 2 2 2 2 2 2 2 2 3 3 2 2
7 7 7 7 7 6 6 6 6 6 5 5 5 5 5 5 5 5 5 5 4 4 4 3 3 3 2 2 2 2 2 2 2 2 2 2 2 2 3 3 2 2
7 7 7 7 6 6 6 6 6 5 5 5 5 5 4 4 4 4 4 4 4 4 3 3 3 3 2 2 2 2 2 2 2 2 2 2 2 2 2 3 3 2
8 7 7 6 6 6 6 6 6 5 5 5 4 4 4 4 4 4 4 4 4 4 3 3 3 3 3 2 2 2 2 2 2 2 2 2 2 2 2 3 3 3
8 7 7 6 6 6 6 6 5 5 5 5 4 4 4 4 4 4 4 4 3 3 3 3 3 3 3 2 2 2 2 2 2 2 2 2 2 2 2 2 2 3
8 7 7 7 6 6 6 5 5 5 5 5 5 5 5 4 4 4 3 3 3 3 3 3 3 3 3 2 2 2 2 2 2 2 2 3 3 2 2 2 2 2
7 7 7 7 6 6 5 5 5 5 5 5 5 5 4 4 4 4 3 3 3 3 3 3 3 3 3 2 2 2 2 2 2 2 2 2 2 2 2 2 2 2
7 6 6 6 6 6 5 5 5 5 4 4 5 4 4 4 4 3 3 3 3 3 3 3 3 2 2 2 2 2 2 2 2 2 2 2 2 2 2 2 2 2
6 6 6 6 6 6 5 5 5 4 4 4 4 4 4 4 3 3 3 3 3 3 2 2 2 2 2 2 2 2 2 2 2 2 2 2 2 2 2 2 2 2
Height
3191 3189 3187 3186 3184 3183 3181 3180 3178 3177 3176 3175 3174 3173 3172 3171 3170 3168 3167 3166 3165 3164 3163 3162 3160 3159 3158 3157 3156 3155 3154 3154 3153 3152 3151 3149 3148 3148 3147 3147 3146 3144
3190 3188 3187 3185 3184 3182 3181 3179 3177 3175 3174 3173 3172 3171 3170 3169 3167 3166 3165 3164 3163 3162 3161 3160 3159 3157 3156 3155 3154 3154 3153 3152 3151 3150 3149 3148 3147 3146 3145 3144 3143 3142
3188 3187 3185 3184 3182 3181 3179 3178 3176 3174 3173 3171 3170 3169 3168 3167 3165 3164 3163 3162 3161 3160 3158 3157 3156 3155 3154 3153 3153 3152 3152 3150 3149 3148 3147 3146 3145 3144 3143 3142 3141 3139
3186 3185 3184 3182 3181 3180 3178 3176 3174 3173 3171 3170 3168 3167 3166 3164 3163 3162 3161 3160 3159 3158 3156 3155 3154 3153 3152 3152 3152 3151 3150 3149 3147 3146 3145 3144 3143 3142 3140 3139 3137 3136
3184 3183 3182 3181 3180 3178 3177 3175 3173 3171 3169 3167 3166 3165 3163 3162 3161 3160 3158 3157 3157 3156 3155 3154 3153 3152 3151 3151 3150 3149 3148 3147 3145 3143 3142 3142 3140 3139 3138 3136 3135 3133
3183 3181 3180 3179 3178 3177 3175 3173 3171 3169 3167 3165 3164 3163 3162 3160 3159 3158 3156 3155 3154 3154 3153 3153 3151 3150 3150 3149 3148 3146 3145 3144 3143 3141 3140 3139 3138 3137 3135 3133 3132 3131
3181 3180 3179 3177 3176 3175 3174 3172 3170 3167 3165 3164 3162 3161 3160 3159 3157 3156 3155 3153 3153 3152 3151 3151 3150 3149 3147 3146 3145 3143 3143 3142 3141 3140 3139 3138 3136 3135 3133 3131 3129 3128
3180 3179 3177 3175 3174 3173 3172 3170 3168 3165 3163 3162 3162 3160 3159 3157 3156 3154 3153 3152 3152 3151 3150 3149 3148 3146 3145 3143 3142 3141 3140 3140 3139 3138 3137 3136 3135 3133 3130 3128 3126 3125
3178 3176 3174 3173 3172 3171 3169 3168 3165 3163 3161 3159 3159 3158 3157 3155 3154 3153 3152 3151 3150 3149 3149 3147 3145 3144 3143 3141 3140 3140 3139 3138 3137 3136 3134 3133 3132 3130 3128 3126 3123 3121
3176 3174 3173 3171 3170 3168 3167 3165 3163 3161 3158 3156 3155 3155 3155 3154 3153 3152 3151 3150 3149 3147 3147 3145 3143 3142 3140 3139 3139 3138 3137 3136 3134 3133 3132 3131 3130 3127 3125 3123 3121 3118
3174 3172 3171 3170 3169 3167 3165 3163 3161 3160 3158 3156 3155 3154 3153 3152 3151 3150 3148 3147 3146 3145 3144 3143 3141 3139 3138 3137 3137 3136 3135 3133 3131 3130 3129 3129 3127 3125 3123 3121 3118 3116
3173 3171 3169 3168 3166 3165 3164 3162 3160 3159 3158 3156 3154 3152 3150 3149 3149 3148 3147 3146 3145 3143 3142 3140 3139 3137 3135 3134 3134 3133 3132 3130 3129 3127 3126 3126 3124 3122 3120 3118 3115 3113
3169 3168 3167 3165 3163 3162 3161 3159 3158 3156 3155 3154 3152 3150 3149 3148 3147 3146 3145 3143 3143 3141 3140 3138 3137 3135 3133 3131 3130 3128 3127 3126 3126 3124 3124 3123 3121 3119 3118 3115 3112 3110
3165 3164 3163 3163 3161 3160 3158 3157 3155 3154 3153 3152 3150 3149 3147 3146 3145 3143 3142 3141 3140 3139 3138 3136 3135 3132 3130 3129 3127 3125 3124 3123 3123 3121 3120 3119 3117 3115 3114 3111 3109 3107
3162 3161 3161 3160 3158 3158 3156 3154 3153 3151 3150 3149 3147 3146 3145 3144 3143 3142 3141 3140 3138 3136 3135 3133 3132 3129 3127 3126 3125 3123 3122 3121 3119 3117 3115 3114 3113 3111 3110 3108 3106 3104
3161 3160 3159 3157 3156 3155 3153 3152 3150 3149 3148 3147 3145 3144 3143 3142 3141 3140 3139 3137 3136 3134 3132 3131 3129 3127 3126 3125 3123 3121 3120 3118 3117 3115 3113 3112 3110 3108 3106 3105 3103 3101
3159 3158 3157 3155 3154 3152 3151 3149 3148 3147 3146 3145 3144 3143 3142 3141 3139 3138 3136 3135 3133 3131 3130 3128 3127 3126 3124 3122 3121 3119 3117 3116 3114 3113 3111 3109 3107 3105 3103 3101 3100 3098
3156 3155 3154 3152 3151 3150 3148 3147 3146 3145 3144 3143 3143 3141 3140 3139 3138 3136 3134 3132 3130 3129 3127 3126 3124 3123 3122 3120 3119 3117 3115 3112 3110 3109 3107 3106 3104 3102 3100 3097 3096 3094
3154 3153 3151 3150 3148 3147 3146 3145 3143 3143 3142 3141 3141 3139 3138 3137 3136 3134 3132 3130 3127 3125 3124 3122 3121 3120 3119 3118 3116 3115 3112 3109 3107 3105 3104 3102 3101 3099 3097 3094 3091 3089
3152 3151 3149 3147 3145 3144 3143 3142 3141 3140 3140 3139 3139 3137 3136 3134 3133 3131 3130 3127 3125 3123 3121 3120 3118 3117 3116 3115 3113 3110 3108 3106 3104 3102 3100 3099 3097 3096 3094 3091 3088 3085
3149 3149 3147 3145 3143 3142 3141 3140 3139 3138 3137 3137 3136 3135 3133 3132 3130 3129 3127 3125 3122 3121 3119 3117 3116 3114 3113 3111 3109 3106 3104 3102 3100 3099 3098 3096 3095 3093 3091 3088 3086 3083
3147 3146 3144 3142 3141 3139 3138 3137 3136 3136 3136 3135 3134 3133 3131 3130 3128 3127 3124 3122 3120 3118 3116 3115 3113 3111 3110 3109 3106 3103 3101 3099 3097 3096 3095 3094 3093 3091 3089 3086 3084 3082
3144 3142 3141 3139 3137 3136 3135 3134 3133 3133 3132 3132 3131 3130 3129 3127 3126 3124 3121 3119 3118 3116 3114 3112 3110 3109 3108 3106 3104 3101 3098 3096 3095 3094 3093 3092 3091 3089 3087 3085 3082 3079
3140 3138 3136 3135 3134 3133 3132 3131 3130 3129 3128 3128 3127 3126 3126 3125 3124 3122 3119 3117 3117 3115 3113 3110 3108 3106 3105 3104 3102 3099 3096 3093 3092 3091 3090 3089 3088 3087 3085 3083 3080 3078
3136 3135 3133 3132 3131 3130 3130 3129 3128 3127 3126 3125 3124 3123 3123 3122 3121 3119 3116 3114 3114 3113 3111 3109 3106 3104 3103 3102 3100 3097 3094 3092 3090 3088 3087 3086 3085 3084 3083 3081 3079 3076
3133 3132 3130 3128 3127 3127 3127 3126 3126 3125 3123 3122 3121 3120 3119 3119 3118 3115 3112 3111 3110 3110 3109 3106 3103 3102 3101 3100 3098 3096 3092 3090 3088 3086 3085 3084 3082 3081 3080 3079 3077 3074
Wind_Speed
29 29 28 26 24 23 22 22 22 21 21 21 21 21 21 22 22 21 20 19 18 17 16 16 16 15 14 15 15 15 15 14 14 16 17 17 19 19 20 22 23 24
29 29 29 27 26 25 23 23 23 23 23 23 22 22 22 22 21 20 20 19 19 19 17 17 17 15 14 15 15 14 14 14 14 15 16 17 19 20 21 21 22 23
28 29 30 29 28 28 27 26 25 25 24 24 24 23 22 22 21 20 20 20 20 20 19 18 17 16 15 15 15 14 14 14 14 15 16 17 19 21 21 21 21 21
28 30 31 31 31 31 30 29 28 27 26 25 25 24 23 22 22 22 21 21 21 20 19 18 18 17 17 16 15 15 16 15 15 16 18 19 21 23 23 23 22 23
27 30 31 33 33 33 33 31 30 28 28 27 25 24 23 23 23 22 22 22 22 20 19 19 19 19 18 18 18 18 19 19 18 18 20 22 24 25 26 26 26 28
26 29 31 33 35 35 34 33 31 29 28 27 26 26 25 24 24 24 22 22 22 21 20 20 19 18 19 20 20 22 23 22 21 20 21 24 26 27 28 28 29 31
26 28 31 33 35 36 35 34 32 29 27 26 26 26 25 25 26 26 23 21 21 21 21 20 18 18 19 19 21 23 23 22 22 22 22 25 27 29 30 30 31 33
27 29 31 33 35 37 36 34 32 30 28 27 25 24 24 24 26 25 22 21 22 21 21 21 20 20 21 21 21 22 24 25 25 24 24 26 28 30 32 32 33 34
27 29 31 34 36 37 36 35 33 31 30 29 27 25 23 24 24 22 21 22 24 23 22 22 22 22 23 23 22 23 25 28 28 27 26 26 27 30 32 33 34 35
28 28 31 33 36 37 36 35 33 31 30 29 29 26 23 22 23 23 23 23 24 24 23 22 23 24 23 23 23 24 26 28 28 28 28 26 26 28 32 33 34 34
27 29 31 33 35 35 35 34 31 28 26 26 27 26 24 23 22 23 24 25 25 25 23 22 23 24 24 23 23 24 24 25 27 27 26 25 26 28 31 32 33 33
27 29 31 33 34 33 33 31 27 24 24 24 26 26 26 25 23 23 25 25 25 25 24 23 23 24 24 24 25 25 23 22 24 25 24 25 27 29 29 30 31 32
28 29 29 31 32 32 32 29 25 24 23 23 23 24 25 24 24 25 25 26 26 26 24 22 21 23 25 25 26 26 24 23 22 22 23 24 26 28 29 29 31 32
27 29 29 29 30 30 29 26 23 22 22 22 23 24 24 24 24 25 26 27 27 26 23 21 21 23 25 24 24 25 26 25 24 23 24 25 27 29 30 30 31 32
26 27 28 29 29 29 27 23 21 21 22 23 25 25 25 24 24 26 27 27 26 25 23 21 20 22 24 23 23 25 26 25 25 26 27 28 30 32 31 30 30 31
25 25 26 28 28 27 24 22 21 21 22 25 27 27 26 25 25 27 29 29 26 24 23 21 21 23 23 23 24 26 27 26 26 27 28 30 31 32 31 30 30 31
23 23 25 26 27 25 22 21 21 23 24 27 28 27 26 26 27 28 30 30 28 26 24 23 24 25 24 24 25 27 28 28 28 29 29 30 30 30 31 31 30 29
22 24 26 26 27 25 22 20 21 24 26 27 26 25 26 27 29 30 30 31 30 28 27 27 28 27 26 25 25 27 28 29 30 30 29 29 28 28 28 29 28 28
21 24 26 27 27 25 22 21 23 25 25 24 24 25 26 28 31 32 32 32 31 29 28 28 29 29 28 27 27 27 29 30 31 30 29 28 28 28 26 26 27 27
23 26 26 26 25 25 23 22 23 24 23 23 24 26 27 31 34 33 33 33 31 28 27 29 30 30 29 29 29 30 31 31 31 30 29 28 27 26 25 25 25 26
26 27 26 24 25 25 24 23 24 25 25 26 28 27 27 31 33 33 32 32 30 28 29 29 30 31 30 29 30 30 31 31 31 30 29 27 25 25 25 24 24 25
28 27 25 25 27 27 25 25 25 25 25 27 29 28 28 32 35 35 33 31 30 30 31 31 31 30 28 26 27 28 29 29 29 29 28 24 22 23 24 24 24 25
28 27 25 27 29 27 25 25 23 24 28 32 32 30 30 33 36 36 32 28 29 31 32 33 33 31 27 24 25 27 28 28 28 28 27 24 21 21 22 23 24 24
28 27 27 29 28 27 27 25 24 27 33 35 33 30 30 33 35 35 31 28 29 30 32 34 34 31 28 26 26 27 27 27 27 27 25 22 21 21 21 22 23 24
28 28 29 28 28 28 29 28 28 30 32 32 32 32 32 34 35 34 31 30 30 31 33 34 33 30 26 25 25 26 25 25 25 24 21 19 20 21 22 21 22 23
29 28 28 28 29 30 30 31 31 29 29 32 34 34 35 36 34 33 33 34 33 34 36 35 33 29 22 20 24 25 25 25 25 23 20 18 19 21 21 20 20 22
Wind_Direction
351 352 350 346 340 337 334 332 329 326 324 323 320 317 314 312 311 310 309 308 308 308 308 306 304 303 303 305 307 307 309 309 308 309 308 305 303 304 306 305 302 301
348 351 351 349 344 339 335 332 329 325 323 320 318 316 315 315 313 312 310 310 309 309 309 306 303 302 302 302 304 306 308 308 307 309 307 305 305 303 305 306 304 300
342 347 349 349 346 343 339 335 330 326 322 319 318 317 316 315 314 313 312 311 310 309 309 307 304 303 301 302 305 308 312 312 311 310 309 308 307 303 301 303 303 300
336 342 346 347 345 342 340 336 332 327 323 320 318 316 316 316 316 315 314 313 312 311 309 308 306 305 306 311 316 317 317 317 314 311 310 311 310 307 306 306 307 306
334 336 340 342 342 340 338 336 332 328 324 322 321 319 318 317 315 315 315 314 313 311 309 308 308 311 316 321 324 323 319 315 311 312 314 316 314 309 308 309 309 307
331 332 335 337 338 337 336 335 332 328 326 326 325 323 320 319 318 317 315 312 312 311 311 312 311 315 320 321 321 319 317 314 312 313 314 314 312 307 306 308 309 308
324 327 329 332 333 333 333 333 331 328 327 326 325 324 321 320 319 317 316 314 312 311 313 315 313 310 311 312 312 312 312 313 311 309 308 309 310 308 306 308 310 309
317 320 325 329 330 330 330 330 329 328 327 326 328 327 322 319 318 317 319 319 317 314 313 313 310 306 305 306 308 310 311 312 311 308 303 305 309 308 306 308 311 309
310 316 323 325 325 326 327 328 328 328 328 329 332 332 327 324 322 320 319 318 317 314 312 311 309 308 308 307 307 310 310 309 309 305 301 302 305 304 305 308 310 308
305 314 320 320 321 324 326 327 328 329 331 333 334 333 329 324 320 317 316 316 315 314 312 310 309 309 310 308 306 306 305 303 303 302 300 299 300 301 303 306 308 307
304 314 316 316 319 323 324 325 327 328 330 330 329 329 328 324 321 320 320 319 318 316 313 310 308 308 308 308 307 305 301 298 298 298 298 297 297 299 302 303 304 305
303 312 313 314 318 321 322 323 324 323 324 325 328 330 329 326 323 321 321 322 323 321 317 313 311 310 310 312 311 305 298 295 293 291 291 294 296 299 301 302 302 304
304 310 312 315 319 321 322 322 322 322 323 327 329 328 326 323 323 325 327 328 329 326 322 319 317 314 313 312 309 304 301 300 297 291 288 291 295 298 300 301 302 304
307 312 313 317 321 322 321 319 319 319 322 326 327 328 329 328 328 331 332 330 329 328 326 326 322 315 310 307 303 301 302 301 299 297 296 298 300 301 302 303 304 306
310 313 314 318 321 321 318 316 315 317 320 326 329 330 332 331 330 332 332 330 329 330 331 329 320 310 306 303 300 298 299 300 301 302 302 303 304 304 304 304 304 305
308 310 314 317 320 320 316 314 315 318 321 324 326 327 327 328 328 329 331 331 329 331 331 325 315 311 305 301 302 304 304 304 305 304 303 304 306 306 307 306 305 305
306 308 312 316 319 319 315 314 315 318 321 323 325 325 324 325 326 327 330 331 330 328 325 318 316 315 308 302 308 314 313 310 307 306 306 306 307 308 310 311 308 305
306 308 311 315 317 316 314 313 315 318 321 323 325 325 324 326 328 328 330 330 327 323 319 318 317 314 310 307 309 313 313 312 311 311 311 309 308 309 311 311 307 303
306 307 310 313 315 315 317 316 315 318 320 322 326 325 324 327 329 328 329 328 326 322 319 318 315 311 310 310 309 311 313 312 311 311 310 310 309 310 311 311 309 306
308 308 308 311 315 318 318 315 314 317 319 321 323 322 324 329 329 327 327 326 324 321 319 317 313 310 311 311 311 313 314 313 311 310 309 310 312 313 313 312 311 310
307 307 306 309 315 319 318 316 315 317 318 320 318 316 323 329 327 324 323 323 322 321 318 314 311 311 313 313 314 313 312 312 312 312 312 310 310 313 314 315 313 310
305 306 309 312 315 318 320 319 316 314 316 319 316 314 321 327 325 321 320 320 319 318 315 312 310 311 312 313 312 309 309 311 312 314 316 313 310 314 317 317 314 311
307 310 316 318 318 319 319 316 313 313 317 319 317 315 320 323 322 318 315 314 314 313 313 313 311 309 311 315 313 310 310 312 313 315 316 312 311 316 316 314 314 313
311 313 318 319 317 317 316 313 311 312 314 317 317 317 319 321 319 314 309 308 308 308 309 310 306 303 308 316 317 314 314 316 316 316 315 312 312 313 312 312 315 314
312 313 315 315 314 314 312 309 308 308 310 314 316 316 317 318 316 313 308 303 302 304 306 306 300 296 302 312 313 312 314 317 319 320 321 318 314 312 311 312 313 311
310 309 308 308 309 309 306 304 303 302 304 308 310 310 312 314 312 310 307 303 301 305 307 302 292 287 292 303 305 304 307 313 321 326 325 321 316 313 313 314 315 314